Hourly Data Report for September 08, 2017

All times are specified in Local Standard Time (LST). Add 1 hour to adjust for Daylight Saving Time where and when it is observed.

WOODSTOCK NEWBRIDGE
NEW BRUNSWICK

46°09'08.000" N
67°32'34.000" W
154.00 m
8105603
71606
EWD

Download Data

Hourly Data (September 2017)
Hourly Data Report for September 8, 2017
Temp Definition
°C
Dew Point Temp Definition
°C
Rel Hum Definition
%
Wind Dir Definition
10's deg

Wind Spd Definition
km/h
Visibility Definition
km
Stn Press Definition
kPa
Hmdx Definition


Wind Chill Definition


Weather Definition


TIME
00:00 11.5 10.9 96 21 2   99.17     LegendNANA
01:00 10.3 9.5 95   0   99.22     LegendNANA
02:00 11.8 11.4 97 20 4   99.24     LegendNANA
03:00 11.3 10.7 96 20 5   99.27     LegendNANA
04:00 10.6 10.0 96 20 4   99.30     LegendNANA
05:00 9.0 8.5 97 20 1   99.34     LegendNANA
06:00 8.1 7.6 97 20 2   99.40     LegendNANA
07:00 11.4 10.5 94 20 4   99.49     LegendNANA
08:00 13.5 11.2 86 20 4   99.57     LegendNANA
09:00 15.4 12.1 81 21 8   99.65     LegendNANA
10:00 16.6 11.3 71 26 9   99.67     LegendNANA
11:00 17.5 10.6 64 24 11   99.70     LegendNANA
12:00 18.2 10.3 60 27 10   99.71     LegendNANA
13:00 18.1 10.7 62 23 6   99.73     LegendNANA
14:00 19.0 9.6 54 26 7   99.72     LegendNANA
15:00 18.2 11.4 65 31 4   99.75     LegendNANA
16:00 16.5 12.9 79 26 4   99.82     LegendNANA
17:00 15.1 13.6 91 20 1   99.86     LegendNANA
18:00 15.3 14.0 92 9 1   99.88     LegendNANA
19:00 14.6 14.0 96 10 2   99.91     LegendNANA
20:00 13.9 13.4 97 0 1   99.98     LegendNANA
21:00 13.5 13.0 97 10 2   100.04     LegendNANA
22:00 13.2 12.7 97 33 3   100.07     LegendNANA
23:00 12.7 12.3 97 33 2   100.09     LegendNANA

Notes on Data Quality.

Legend

  • E = Estimated
  • M = Missing
  • NA = Not Available
  • ‡ = Partner data that is not subject to review by the National Climate Archives
Date modified: